This demonstration page uses our WeatherBlox Daily Observations layout. Learn more.

Left ArrowRight Arrow

Hourly Observations for August 16, 2016

Temp ( °F °C ) Dew Point ( °F °C ) Humidity (%) Winds ( mph kmh ) Pressure ( in mb ) Visibility ( mi km ) Precip ( " mm )
12:15 am 00:15 Mostly Cloudy 73 23 73 23 100 100 Calm 30.21 1023 10 16 0.00 0.00
12:35 am 00:35 Partly Cloudy 73 23 73 23 100 100 Calm 30.21 1023 10 16 0.00 0.00
12:55 am 00:55 Clear 73 23 73 23 100 100 Calm 30.24 1024 10 16 0.00 0.00
1:15 am 01:15 Partly Cloudy 73 23 73 23 100 100 S 5 7 30.24 1024 10 16 0.00 0.00
1:35 am 01:35 Partly Cloudy 73 23 73 23 100 100 S 8 13 30.24 1024 10 16 0.00 0.00
1:55 am 01:55 Mostly Cloudy 73 23 73 23 100 100 S 5 7 30.21 1023 10 16 0.00 0.00
2:15 am 02:15 Cloudy 73 23 73 23 100 100 SSW 7 11 30.21 1023 10 16 0.00 0.00
2:35 am 02:35 Partly Cloudy 73 23 73 23 100 100 S 6 9 30.21 1023 10 16 0.00 0.00
2:55 am 02:55 Clear 73 23 73 23 100 100 S 7 11 30.21 1023 10 16 0.00 0.00
3:15 am 03:15 Partly Cloudy 73 23 73 23 100 100 S 7 11 30.21 1023 10 16 0.00 0.00
3:35 am 03:35 Partly Cloudy 73 23 73 23 100 100 SSW 3 6 30.21 1023 10 16 0.00 0.00
3:55 am 03:55 Mostly Cloudy 73 23 73 23 100 100 S 3 6 30.18 1022 10 16 0.00 0.00
4:15 am 04:15 Cloudy 73 23 73 23 100 100 S 3 6 30.18 1022 10 16 0.00 0.00
4:35 am 04:35 Cloudy 73 23 73 23 100 100 S 5 7 30.18 1022 10 16 0.00 0.00
4:55 am 04:55 Cloudy 73 23 73 23 100 100 SSW 3 6 30.21 1023 10 16 0.00 0.00
5:15 am 05:15 Cloudy 73 23 73 23 100 100 S 5 7 30.21 1023 10 16 0.00 0.00
5:35 am 05:35 Cloudy 73 23 73 23 100 100 S 7 11 30.21 1023 10 16 0.00 0.00
5:55 am 05:55 Cloudy 73 23 73 23 100 100 S 7 11 30.21 1023 10 16 0.00 0.00
6:15 am 06:15 Cloudy 73 23 73 23 100 100 S 5 7 30.21 1023 10 16 0.00 0.00
6:35 am 06:35 Cloudy 73 23 73 23 100 100 SW 3 6 30.21 1023 10 16 0.00 0.00
6:55 am 06:55 Cloudy 73 23 73 23 100 100 SSW 5 7 30.21 1023 10 16 0.00 0.00
7:15 am 07:15 Cloudy 73 23 73 23 100 100 SSW 5 7 30.21 1023 10 16 0.00 0.00
7:35 am 07:35 Cloudy 73 23 73 23 100 100 SW 5 7 30.21 1023 10 16 0.00 0.00
7:55 am 07:55 Cloudy 73 23 73 23 100 100 SW 5 7 30.21 1023 10 16 0.00 0.00
8:15 am 08:15 Cloudy 73 23 73 23 100 100 SSW 5 7 30.21 1023 10 16 0.00 0.00
8:35 am 08:35 Cloudy 73 23 73 23 100 100 SSW 5 7 30.21 1023 10 16 0.00 0.00
8:55 am 08:55 Cloudy 77 25 73 23 89 89 SW 3 6 30.21 1023 10 16 0.00 0.00
9:15 am 09:15 Cloudy 79 26 75 24 89 89 SSW 7 11 30.21 1023 10 16 0.00 0.00
9:35 am 09:35 Cloudy 79 26 77 25 94 94 SW 7 11 30.21 1023 10 16 0.00 0.00
9:55 am 09:55 Mostly Cloudy 81 27 77 25 89 89 SSW 10 17 30.21 1023 10 16 0.00 0.00
10:15 am 10:15 Partly Cloudy 82 28 77 25 84 84 SSW 8 13 30.21 1023 10 16 0.00 0.00
10:35 am 10:35 Sunny 82 28 77 25 84 84 S 9 15 30.18 1022 10 16 0.00 0.00
10:55 am 10:55 Sunny 86 30 77 25 75 75 SSW 7 11 30.18 1022 10 16 0.00 0.00
11:15 am 11:15 Sunny 86 30 77 25 75 75 S 7 11 30.18 1022 10 16 0.00 0.00
11:35 am 11:35 Sunny 88 31 77 25 70 70 S 5 7 30.18 1022 10 16 0.00 0.00
11:55 am 11:55 Sunny 88 31 79 26 75 75 WSW 7 11 30.18 1022 10 16 0.00 0.00
12:15 pm 12:15 Sunny 90 32 77 25 67 67 S 6 9 30.12 1020 10 16 0.00 0.00
12:35 pm 12:35 Sunny 90 32 79 26 71 71 S 8 13 30.12 1020 10 16 0.00 0.00
12:55 pm 12:55 Sunny 91 33 77 25 63 63 S 9 15 30.12 1020 10 16 0.00 0.00
1:15 pm 13:15 Sunny 93 34 79 26 63 63 SSE 7 11 30.12 1020 10 16 0.00 0.00
1:35 pm 13:35 Sunny 95 35 77 25 56 56 S 6 9 30.09 1019 10 16 0.00 0.00
1:55 pm 13:55 Sunny 95 35 75 24 53 53 S 8 13 30.09 1019 10 16 0.00 0.00
2:15 pm 14:15 Partly Cloudy 97 36 75 24 50 50 S 15 24 30.06 1018 10 16 0.00 0.00
2:35 pm 14:35 Partly Cloudy 97 36 73 23 47 47 S 17 28 30.06 1018 10 16 0.00 0.00
2:55 pm 14:55 Sunny with Nearby Thunderstorms 97 36 72 22 44 44 SSW 18 30 30.06 1018 10 16 0.00 0.00
3:15 pm 15:15 Partly Cloudy 97 36 72 22 44 44 S 15 24 30.06 1018 10 16 0.00 0.00
3:35 pm 15:35 Partly Cloudy with Nearby Thunderstorms 99 37 72 22 42 42 SSW 12 19 30.06 1018 10 16 0.00 0.00
3:55 pm 15:55 Mostly Cloudy with Thunderstorms 88 31 73 23 62 62 NNW 15 24 30.09 1019 10 16 0.00 0.00
4:15 pm 16:15 Mostly Cloudy with Nearby Thunderstorms 82 28 75 24 79 79 NW 14 22 30.09 1019 10 16 0.00 0.00
4:35 pm 16:35 Cloudy with Thunderstorms 86 30 73 23 66 66 NW 15 24 30.09 1019 10 16 0.00 0.00
4:55 pm 16:55 Cloudy with Nearby Thunderstorms 84 29 73 23 70 70 NE 7 11 30.09 1019 10 16 0.00 0.00
5:15 pm 17:15 Mostly Cloudy with Nearby Thunderstorms 82 28 73 23 74 74 W 18 30 30.12 1020 10 16 0.00 0.00
5:35 pm 17:35 Cloudy with Heavy Rain 77 25 75 24 94 94 NW 12 19 30.09 1019 3 4 0.00 0.00
5:55 pm 17:55 Partly Cloudy 77 25 77 25 100 100 W 10 17 30.09 1019 10 16 0.00 0.00
6:15 pm 18:15 Sunny 77 25 77 25 100 100 SSW 3 6 30.06 1018 10 16 0.00 0.00
6:35 pm 18:35 Sunny 79 26 79 26 100 100 S 9 15 30.06 1018 10 16 0.00 0.00
6:55 pm 18:55 Sunny 79 26 77 25 94 94 Calm 30.06 1018 10 16 0.00 0.00
7:15 pm 19:15 Sunny 81 27 79 26 94 94 Calm 30.06 1018 10 16 0.00 0.00
7:35 pm 19:35 Sunny 81 27 79 26 94 94 Calm 30.06 1018 10 16 0.00 0.00
7:55 pm 19:55 Sunny 81 27 79 26 94 94 Calm 30.06 1018 10 16 0.00 0.00
8:15 pm 20:15 Clear 79 26 79 26 100 100 Calm 30.09 1019 10 16 0.00 0.00
8:35 pm 20:35 Clear 79 26 79 26 100 100 Calm 30.09 1019 10 16 0.00 0.00
8:55 pm 20:55 Clear 79 26 79 26 100 100 SSW 3 6 30.09 1019 10 16 0.00 0.00
9:15 pm 21:15 Clear 79 26 79 26 100 100 SW 3 6 30.09 1019 10 16 0.00 0.00
9:35 pm 21:35 Clear 79 26 79 26 100 100 SW 6 9 30.09 1019 10 16 0.00 0.00
9:55 pm 21:55 Clear 79 26 79 26 100 100 SW 5 7 30.09 1019 10 16 0.00 0.00
10:15 pm 22:15 Mostly Cloudy 81 27 79 26 94 94 SW 8 13 30.09 1019 10 16 0.00 0.00
10:35 pm 22:35 Partly Cloudy 81 27 77 25 89 89 SW 5 7 30.09 1019 10 16 0.00 0.00
10:55 pm 22:55 Clear 81 27 77 25 89 89 SW 8 13 30.09 1019 10 16 0.00 0.00
11:15 pm 23:15 Partly Cloudy 79 26 77 25 94 94 W 6 9 30.09 1019 10 16 0.00 0.00
11:35 pm 23:35 Partly Cloudy 79 26 77 25 94 94 WNW 12 19 30.12 1020 10 16 0.00 0.00
11:55 pm 23:55 Clear 79 26 77 25 94 94 Calm 30.12 1020 10 16 0.00 0.00

Powered by AerisWeather